User: anonymous   Login
Location: Ostrava
(49.8330°N, 18.2830°E)
Time: 05:17:51
(UTC+02:00)
Language:

Explorer 7 - Orbit

View from above orbital plane
View from above orbital plane
View from above satellite
View from above satellite

Ground track
Ground track

The orbit data is extracted from the following two-line orbital elements,

1 00022U 59009A   15089.38696508  .00004034  00000-0  34457-3 0  9992
2 00022 050.2849 030.6604 0148566 188.3798 171.4662 14.91633638940337
Epoch (UTC): 30 March 2015 09:17:13
Eccentricity: 0.0148566
inclination: 50.2849°
perigee height: 489 km
apogee height: 696 km
right ascension of ascending node: 30.6604°
argument of perigee: 188.3798°
revolutions per day: 14.91633638
mean anomaly at epoch: 171.4662°
orbit number at epoch: 94033

The dashed part of the orbit path shows where the satellite is in the earth's shadow,  

DLR